Lid_Strength_Index
1 1 1 1 0 0 0 0 0 1 4 5 2 1 2 2 2 2 3 2 2 4 4 6 4 5 7 6
1 1 1 1 1 1 1 1 0 2 6 2 1 2 2 2 2 1 2 1 2 3 4 4 5 7 7 10
2 1 1 1 0 1 1 0 1 3 6 3 4 3 2 4 3 2 2 2 2 4 4 7 8 8 11 10
1 1 1 1 1 2 1 1 3 6 5 6 4 3 2 3 4 4 4 4 4 6 6 7 12 11 11 10
1 2 3 3 5 6 4 6 6 7 6 4 3 4 3 4 4 5 8 6 7 9 8 7 7 8 9 10
2 2 3 5 5 4 7 5 5 5 4 4 6 5 3 6 7 8 7 8 9 7 7 6 7 8 9 10
2 3 3 5 3 3 6 6 5 5 5 5 7 6 5 6 8 9 9 10 8 7 8 7 8 8 9 10
4 3 4 3 2 2 8 8 7 5 5 6 7 5 6 7 7 9 9 9 8 9 8 8 8 10 8 9
3 4 3 1 1 2 14 8 7 5 6 7 7 7 6 7 9 9 9 10 10 9 9 9 7 9 7 9
3 3 1 1 2 9 14 9 7 9 9 8 8 7 8 6 7 9 9 10 8 8 8 7 7 6 8 9
4 1 1 2 9 12 8 9 9 9 9 10 9 10 10 10 11 12 12 10 10 9 8 9 7 7 10 16
1 1 2 6 11 9 9 8 9 9 10 10 10 10 10 10 10 10 11 13 14 11 9 9 10 9 10 16
1 1 4 9 9 8 7 9 10 10 10 10 10 10 11 11 10 10 13 13 13 10 9 8 8 9 11 9
1 2 6 8 7 6 7 8 10 9 11 11 11 11 11 10 11 10 10 11 14 11 11 8 8 9 7 13
1 5 9 7 7 6 6 8 9 10 10 10 10 11 11 10 10 10 10 11 12 12 11 11 11 9 10 9
8 8 9 7 6 7 7 8 8 8 9 9 10 11 11 10 9 10 12 11 12 13 13 10 9 10 10 10
11 10 7 8 7 7 7 8 8 8 8 9 11 10 11 10 10 11 11 10 12 14 14 11 11 12 11 11